Location: Agendoh
(31.0664°N, 8.9343°W)
Time: 17:11:12
(UTC+00:00)

Lacrosse 5 - Pass Details

Date: 26 June 2022
Orbit: 714 x 724 km, 57.0° (Epoch: 09 March)

Event Time Altitude Azimuth Distance (km) Brightness Sun altitude
Rises 22:20:00 0° 342° (NNW) 3,138 6.3 -26.3°
Reaches altitude 10° 22:24:57 10° 24° (NNE) 2,212 4.7 -26.9°
Maximum altitude 22:25:44 10° 33° (NNE) 2,190 4.6 -27.0°
Drops below altitude 10° 22:26:30 10° 42° (NE) 2,210 4.5 -27.1°
Enters shadow 22:27:56 - 57° (ENE) 2,352 4.5 -27.2°
